Previsão horária em Plesna

Hoje, 5 Março, Sexta-feira

Tempo Temperatura Precipitação Vento Pressão Humidade
00:00 +4°C° 2.1 mm 2 m/s 737 mmHg 94%
01:00 +4°C° 2.1 mm 2 m/s 737 mmHg 95%
02:00 +3°C° 0.6 mm 2 m/s 737 mmHg 96%
03:00 +2°C° 0.6 mm 2 m/s 737 mmHg 96%
04:00 +2°C° 0.6 mm 2 m/s 737 mmHg 96%
05:00 +1°C° 0.5 mm 2 m/s 737 mmHg 96%
06:00 +1°C° 0.5 mm 2 m/s 737 mmHg 96%
07:00 +1°C° 0.5 mm 2 m/s 737 mmHg 97%
08:00 0°C° 0.4 mm 3 m/s 737 mmHg 96%
09:00 0°C° 0.4 mm 3 m/s 738 mmHg 96%
10:00 -2°C° 0.4 mm 4 m/s 739 mmHg 96%
11:00 -1°C° 0.5 mm 4 m/s 739 mmHg 94%
12:00 -1°C° 0.5 mm 4 m/s 739 mmHg 91%
13:00 -1°C° 0.5 mm 4 m/s 740 mmHg 89%
14:00 -1°C° 0.3 mm 4 m/s 740 mmHg 84%
15:00 -1°C° 0.3 mm 5 m/s 741 mmHg 80%
16:00 -1°C° 0.3 mm 5 m/s 741 mmHg 75%
17:00 -2°C° 0.1 mm 4 m/s 742 mmHg 74%
18:00 -2°C° 0.1 mm 3 m/s 743 mmHg 72%
19:00 -3°C° 0.1 mm 2 m/s 744 mmHg 71%
20:00 -3°C° 0 mm 2 m/s 744 mmHg 72%
21:00 -3°C° 0 mm 2 m/s 745 mmHg 74%
22:00 -3°C° 0 mm 2 m/s 746 mmHg 75%
23:00 -3°C° 0 mm 2 m/s 746 mmHg 76%

Amanhã, 6 Março, Sábado

Tempo Temperatura Precipitação Vento Pressão Humidade
00:00 -3°C° 0 mm 2 m/s 746 mmHg 77%
01:00 -3°C° 0 mm 2 m/s 747 mmHg 78%
02:00 -3°C° 0 mm 2 m/s 747 mmHg 79%
03:00 -4°C° 0 mm 3 m/s 747 mmHg 79%
04:00 -4°C° 0 mm 3 m/s 747 mmHg 80%
05:00 -4°C° 0 mm 3 m/s 748 mmHg 79%
06:00 -4°C° 0 mm 3 m/s 748 mmHg 79%
07:00 -4°C° 0 mm 3 m/s 749 mmHg 79%
08:00 -3°C° 0 mm 4 m/s 749 mmHg 73%
09:00 -2°C° 0 mm 4 m/s 749 mmHg 68%
10:00 -1°C° 0 mm 4 m/s 750 mmHg 62%
11:00 -1°C° 0 mm 4 m/s 750 mmHg 58%
12:00 0°C° 0 mm 4 m/s 750 mmHg 54%
13:00 0°C° 0 mm 4 m/s 750 mmHg 50%
14:00 0°C° 0 mm 4 m/s 749 mmHg 51%
15:00 +1°C° 0 mm 3 m/s 749 mmHg 52%
16:00 +1°C° 0 mm 3 m/s 749 mmHg 53%
17:00 0°C° 0 mm 3 m/s 749 mmHg 59%
18:00 -1°C° 0 mm 3 m/s 749 mmHg 65%
19:00 -2°C° 0 mm 2 m/s 749 mmHg 71%
20:00 -2°C° 0 mm 3 m/s 749 mmHg 71%
21:00 -2°C° 0 mm 3 m/s 749 mmHg 71%
22:00 -4°C° 0 mm 3 m/s 749 mmHg 71%
23:00 -4°C° 0 mm 3 m/s 749 mmHg 70%

Depois de amanhã, 7 Março, Domingo

Tempo Temperatura Precipitação Vento Pressão Humidade
00:00 -4°C° 0 mm 3 m/s 748 mmHg 70%
01:00 -4°C° 0 mm 3 m/s 748 mmHg 70%
02:00 -4°C° 0 mm 3 m/s 748 mmHg 69%
03:00 -4°C° 0 mm 3 m/s 747 mmHg 68%
04:00 -4°C° 0 mm 3 m/s 746 mmHg 67%
05:00 -4°C° 0 mm 3 m/s 746 mmHg 66%
06:00 -4°C° 0 mm 4 m/s 746 mmHg 65%
07:00 -3°C° 0 mm 4 m/s 746 mmHg 64%
08:00 -2°C° 0 mm 5 m/s 746 mmHg 59%
09:00 0°C° 0 mm 5 m/s 745 mmHg 54%
10:00 +1°C° 0 mm 6 m/s 745 mmHg 49%
11:00 +2°C° 0 mm 6 m/s 744 mmHg 48%
12:00 +3°C° 0 mm 6 m/s 744 mmHg 48%
13:00 +3°C° 0 mm 5 m/s 744 mmHg 48%
14:00 +3°C° 0 mm 5 m/s 743 mmHg 51%
15:00 +4°C° 0 mm 4 m/s 742 mmHg 54%
16:00 +3°C° 0 mm 3 m/s 742 mmHg 58%
17:00 +2°C° 0 mm 3 m/s 741 mmHg 61%
18:00 +1°C° 0 mm 3 m/s 741 mmHg 65%
19:00 -1°C° 0 mm 3 m/s 741 mmHg 68%
20:00 -1°C° 0 mm 2 m/s 741 mmHg 69%
21:00 -1°C° 0 mm 2 m/s 741 mmHg 70%
22:00 -2°C° 0 mm 2 m/s 740 mmHg 71%
23:00 -2°C° 0 mm 2 m/s 740 mmHg 71%

8 Março, Segunda-feira

Tempo Temperatura Precipitação Vento Pressão Humidade
00:00 -2°C° 0 mm 2 m/s 740 mmHg 71%
01:00 -2°C° 0 mm 2 m/s 740 mmHg 71%
02:00 -2°C° 0 mm 2 m/s 739 mmHg 72%
03:00 -2°C° 0 mm 2 m/s 739 mmHg 73%
04:00 -2°C° 0 mm 2 m/s 738 mmHg 74%
05:00 -2°C° 0 mm 3 m/s 738 mmHg 74%
06:00 -2°C° 0 mm 3 m/s 738 mmHg 74%
07:00 -1°C° 0 mm 3 m/s 738 mmHg 74%
08:00 -2°C° 0 mm 4 m/s 739 mmHg 76%
09:00 -1°C° 0 mm 5 m/s 739 mmHg 79%
10:00 -2°C° 0 mm 6 m/s 739 mmHg 82%
11:00 -2°C° 0.2 mm 6 m/s 739 mmHg 85%
12:00 -1°C° 0.2 mm 5 m/s 739 mmHg 87%
13:00 0°C° 0.2 mm 5 m/s 739 mmHg 89%
14:00 -1°C° 0.3 mm 5 m/s 740 mmHg 82%
15:00 -1°C° 0.3 mm 4 m/s 740 mmHg 74%
16:00 -1°C° 0.3 mm 4 m/s 740 mmHg 66%
17:00 -1°C° 0 mm 3 m/s 741 mmHg 70%
18:00 -2°C° 0 mm 3 m/s 741 mmHg 73%
19:00 -3°C° 0 mm 2 m/s 742 mmHg 76%
20:00 -3°C° 0 mm 2 m/s 743 mmHg 77%
21:00 -3°C° 0 mm 2 m/s 743 mmHg 78%
22:00 -2°C° 0 mm 1 m/s 744 mmHg 79%
23:00 -2°C° 0 mm 1 m/s 744 mmHg 81%

9 Março, Terça-feira

Tempo Temperatura Precipitação Vento Pressão Humidade
00:00 -2°C° 0 mm 1 m/s 744 mmHg 82%
01:00 -2°C° 0 mm 1 m/s 744 mmHg 83%
02:00 -2°C° 0 mm 1 m/s 744 mmHg 85%
03:00 -2°C° 0 mm 1 m/s 744 mmHg 86%
04:00 -2°C° 0 mm 1 m/s 744 mmHg 87%
05:00 -2°C° 0 mm 1 m/s 744 mmHg 85%
06:00 -2°C° 0 mm 1 m/s 744 mmHg 82%
07:00 -2°C° 0 mm 1 m/s 745 mmHg 80%
08:00 -4°C° 0 mm 2 m/s 745 mmHg 73%
09:00 -3°C° 0 mm 2 m/s 745 mmHg 66%
10:00 -2°C° 0 mm 2 m/s 745 mmHg 59%
11:00 -2°C° 0 mm 2 m/s 745 mmHg 54%
12:00 -1°C° 0 mm 2 m/s 745 mmHg 50%
13:00 -1°C° 0 mm 2 m/s 746 mmHg 45%
14:00 -1°C° 0 mm 2 m/s 745 mmHg 45%
15:00 -1°C° 0 mm 2 m/s 745 mmHg 46%
16:00 -1°C° 0 mm 2 m/s 745 mmHg 46%
17:00 -2°C° 0 mm 2 m/s 745 mmHg 50%
18:00 0°C° 0 mm 1 m/s 746 mmHg 54%
19:00 -1°C° 0 mm 1 m/s 746 mmHg 58%
20:00 -1°C° 0 mm 1 m/s 747 mmHg 59%
21:00 -2°C° 0 mm 1 m/s 747 mmHg 60%
22:00 -4°C° 0 mm 2 m/s 747 mmHg 62%
23:00 -4°C° 0 mm 2 m/s 747 mmHg 62%

10 Março, Quarta-feira

Tempo Temperatura Precipitação Vento Pressão Humidade
00:00 -5°C° 0 mm 2 m/s 747 mmHg 62%
01:00 -3°C° 0 mm 1 m/s 748 mmHg 63%
02:00 -3°C° 0 mm 1 m/s 748 mmHg 63%
03:00 -3°C° 0 mm 1 m/s 748 mmHg 62%
04:00 -3°C° 0 mm 1 m/s 748 mmHg 62%
05:00 -5°C° 0 mm 2 m/s 748 mmHg 61%
06:00 -5°C° 0 mm 2 m/s 748 mmHg 61%
07:00 -5°C° 0 mm 2 m/s 748 mmHg 60%
08:00 -4°C° 0 mm 2 m/s 749 mmHg 53%
09:00 -4°C° 0 mm 2 m/s 749 mmHg 46%
10:00 -4°C° 0 mm 3 m/s 749 mmHg 40%
11:00 -2°C° 0 mm 2 m/s 749 mmHg 37%
12:00 -1°C° 0 mm 2 m/s 748 mmHg 34%
13:00 +1°C° 0 mm 2 m/s 748 mmHg 31%
14:00 +1°C° 0 mm 2 m/s 748 mmHg 32%
15:00 +1°C° 0 mm 2 m/s 747 mmHg 33%
16:00 +1°C° 0 mm 2 m/s 747 mmHg 34%
17:00 -1°C° 0 mm 2 m/s 747 mmHg 40%
18:00 -3°C° 0 mm 2 m/s 747 mmHg 46%
19:00 -4°C° 0 mm 2 m/s 747 mmHg 52%
20:00 -4°C° 0 mm 2 m/s 747 mmHg 53%
21:00 -5°C° 0 mm 3 m/s 747 mmHg 55%
22:00 -5°C° 0 mm 3 m/s 746 mmHg 57%
23:00 -4°C° 0 mm 3 m/s 746 mmHg 55%
Mostrar mais

Necessitamos do seu Consentimento

A Meteoprog e os seus Fornecedores de Serviços podem armazenar e aceder a dados pessoais como cookies, identificadores do dispositivo ou outras tecnologias semelhantes existentes no seu dispositivo e processar estes dados para personalizar conteúdos e anúncios, assim como funcionalidades nas redes sociais e análise de tráfego.

  • Armazenar e/ou aceder a informações no seu dispositivo

    Os cookies, identificadores do dispositivo ou outras informações podem ser armazenados ou acedidos no seu dispositivo, para os fins acima indicados.

  • Anúncios e conteúdos personalizados, medição de anúncios e conteúdos, dados sobre o público-alvo e desenvolvimento de produtos

    Os anúncios e os conteúdos podem ser personalizados com base num perfil. Podem ser adicionados dados adicionais para uma maior personalização dos anúncios e dos conteúdos. A eficácia dos anúncios e dos conteúdos pode ser medida. Podem ser obtidas informações sobre o público que visualizou os anúncios e os conteúdos. Estes dados podem ser usados para desenvolver ou melhorar sistemas, softwares ou a experiência do utilizador.

Ao clicar em "Eu concordo”, permitirá o uso de cookies, identificadores do dispositivo e web beacons mencionados ou outras tecnologias semelhantes. As configurações do navegador do seu dispositivo podem ser alteradas.

Para certos fins, podem ser invocados interesses legítimos ao invés de consentimento. Pode ler mais informação sobre este assunto na nossa Política de Privacidade e Cookies.